Regional Weather Roundup
Issued by NWS Newport/Morehead, NC

Current Version | Previous Version | Text Only | Print | Product List | Glossary On
Versions: 1 2 3 4 5 6 7 8 9 10 11 12 13 14 15 16 17 18 19 20 21 22 23 24 25 26 27 28 29 30 31 32 33 34 35 36 37 38 39 40 41 42 43 44 45 46 47 48 49 50
000
ASUS42 KMHX 020610
RWRMHX
WEATHER ROUNDUP FOR EASTERN NORTH CAROLINA
NATIONAL WEATHER SERVICE NEWPORT/MOREHEAD CITY NC
200 AM EDT TUE SEP 02 2014

NOTE: "FAIR" INDICATES FEW OR NO CLOUDS BELOW 12,000 FEET
WITH NO SIGNIFICANT WEATHER AND/OR OBSTRUCTIONS TO VISIBILITY

NCZ015>017-031-032-045>047-102-103-020700-
NORTH COAST

CITY           SKY/WX    TMP DP  RH WIND       PRES   REMARKS
EDENTON        FAIR      80  74  83 SW7       30.05S
ELIZABETH CITY FAIR      79  75  87 SW8       30.03S
KITTY HAWK     FAIR      79  76  89 SW7       30.03F
MANTEO         FAIR      78  76  91 SW10      30.05S

$$

NCZ045>047-081-094-103-104-020700-
CENTRAL COAST

CITY           SKY/WX    TMP DP  RH WIND       PRES   REMARKS
FRISCO         FAIR      80  77  90 W13       30.07S
SWANQUARTER      N/A     81 N/A N/A SW13      30.03S

$$

NCZ095-097-098-100-101-020700-
SOUTHERN COAST

CITY           SKY/WX    TMP DP  RH WIND       PRES   REMARKS
BEAUFORT       FAIR      82  76  81 SW13      30.07F
CEDAR ISLAND     N/A     79 N/A N/A S6        30.12S
JACKSONVILLE   FAIR      77  74  90 S5        30.06F
NEWPORT        NOT AVBL
PINEY ISLAND   FAIR      80  78  94 S6        30.06F
WILMINGTON     FAIR      78  76  93 S5        30.07F


$$

NCZ011>013-027>030-043-044-078>080-089-090>093-098-020700-
COASTAL PLAIN

CITY           SKY/WX    TMP DP  RH WIND       PRES   REMARKS
AHOSKIE        FAIR      76  74  93 CALM      30.04S
CLINTON        FAIR      77  76  97 CALM      30.08S
ELIZABETHTOWN  FAIR      78  76  93 SW3       30.08S
GOLDSBORO      FAIR      78  77  98 SW7       30.04F
GREENVILLE     FAIR      79  75  89 SW9       30.07S
HAVELOCK       FAIR      78  76  93 S7        30.08F
KENANSVILLE    FAIR      76  74  92 CALM      30.08S
KINSTON        FAIR      78  75  91 SW8       30.07S
NEW BERN       FAIR      78  74  87 SW8       30.07F
RICHLANDS      FAIR      75  72  88 SW5       30.07F
ROANOKE RAPIDS NOT AVBL
ROCKY MOUNT    FAIR      78  75  90 S7        30.05S
WASHINGTON     FAIR      77  74  91 SW7       30.06S
WHITEVILLE     FAIR      77  74  92 CALM      30.07F

$$

AMZ130-135-150-152-154-156-158-170-250-252-270-ANZ085-086-088-633-658-670-020700-
MARINE OBSERVATIONS

STATION/POSITION TIME  TEMP    WIND        PRES    WAVE   SWELL
                       AIR SEA DIR/SP/G            HT/PER HT/PER
                 (UTC) (F)     (DEG/KT/KT) (MB)    (FT/S) (FT/S)
CHESAPEAKE LIGHT 0500   80     220/ 15/ 15 1017.1
BUOY 44014       0600   79 78  220/ 16/ 17 1016.3    3/11   2/11
DUCK             0600   80 75  220/ 11/ 16 1016.5
2E DUCK          0600                        N/A     2/11   2/11
OREGON INLET     0600   81 84  210/ 15/ 19 1017.4
BUOY 44095       0600      79                N/A     3/11   2/11
20E OREGON INLET NOT AVBL
HATTERAS CG      0600   81 84  230/ 14/ 18 1018.7
DIAMOND BUOY     0600   81     220/ 16/ 19 1017.9    4/ 5   2/10
CAPE LOOKOUT     0500   81     240/  9/ 12 1018.8
BEAUFORT LAB     0600   81 83  220/  8/ 10 1018.0
30 SE NEW RIVER  0600   82 82  240/ 12/ 16 1019.0    3/ 8   2/ 8
5 SE WRIGHTSVILL 0500   79 83  230/ 14/ 17   N/A
BUOY 41002       0526   81 83  200/ 12/ 14 1020.5    4/11   3/11
BUOY 41004       0600   83 83  200/ 12/ 14 1018.6    3/ 8   2/ 8

$$


USA.gov is the U.S. government's official web portal to all federal, state and local government web resources and services.